Location: Melbourne
(37.8170°S, 144.9670°E)
Time: 08:29:47
(UTC+10:00)

deb Explorer IX - All Passes

Search period start: 31 August 2016 00:00
Search period end: 10 September 2016 00:00
Orbit: 552 x 1127 km, 38.8° (Epoch: 29 August)

Date Brightness Start Highest point End Pass type
(mag) Time Alt. Az. Time Alt. Az. Time Alt. Az.
31 Aug - 07:57:01 10° NW 08:01:36 31° NNE 08:05:41 10° E daylight
31 Aug - 09:43:49 10° WNW 09:48:37 82° NNE 09:52:55 10° E daylight
31 Aug - 11:31:26 10° W 11:35:50 79° S 11:40:01 10° E daylight
31 Aug - 13:18:48 10° W 13:22:52 50° NNW 13:26:59 10° NE daylight
31 Aug - 15:07:29 10° WNW 15:09:29 13° NW 15:11:31 10° N daylight
01 Sep - 07:39:14 10° NW 07:44:04 34° NNE 07:48:20 10° E daylight
01 Sep - 09:26:13 10° WNW 09:31:08 86° NNE 09:35:30 10° E daylight
01 Sep - 11:13:54 10° W 11:18:23 80° S 11:22:34 10° E daylight
01 Sep - 13:01:20 10° W 13:05:24 47° NNW 13:09:26 10° NE daylight
01 Sep - 14:50:30 10° NW 14:51:57 11° NW 14:53:23 10° NNW daylight
02 Sep - 05:38:26 10° NNE 05:39:41 11° NE 05:40:54 10° NE visible
02 Sep - 07:21:25 10° NW 07:26:32 38° NNE 07:30:59 10° E daylight
02 Sep - 09:08:35 10° WNW 09:13:39 88° NNE 09:18:05 10° E daylight
02 Sep - 10:56:20 10° W 11:00:56 82° S 11:05:08 10° E daylight
02 Sep - 12:43:52 10° W 12:47:55 44° NNW 12:51:53 10° NE daylight
02 Sep - 14:34:06 10° NW 14:34:24 10° NW 14:34:42 10° NNW daylight
03 Sep - 05:19:40 10° NNE 05:22:05 12° NE 05:24:22 10° ENE visible
03 Sep - 07:03:37 10° NW 07:08:59 41° NNE 07:13:37 10° E daylight
03 Sep - 08:50:56 10° W 08:56:10 89° S 09:00:41 10° E daylight
03 Sep - 10:38:46 10° W 10:43:28 84° S 10:47:43 10° E daylight
03 Sep - 12:26:22 10° W 12:30:27 41° NNW 12:34:21 10° NE daylight
04 Sep - 05:01:18 10° N 05:04:28 14° NE 05:07:26 10° ENE visible
04 Sep - 06:45:50 10° NW 06:51:26 45° NNE 06:56:13 10° E daylight
04 Sep - 08:33:17 10° W 08:38:40 87° S 08:43:17 10° E daylight
04 Sep - 10:21:11 10° W 10:26:00 86° S 10:30:18 10° E daylight
04 Sep - 12:08:52 10° W 12:12:57 38° NNW 12:16:49 10° NE daylight
05 Sep - 04:43:04 10° N 04:46:50 16° NE 04:50:20 10° ENE visible
05 Sep - 06:28:02 10° NW 06:33:51 49° NNE 06:38:50 10° E daylight
05 Sep - 08:15:37 10° W 08:21:10 86° S 08:25:52 10° E daylight
05 Sep - 10:03:34 10° W 10:08:32 88° SSE 10:12:53 10° E daylight
05 Sep - 11:51:21 10° W 11:55:28 36° NNW 11:59:17 10° NE daylight
06 Sep - 04:24:55 10° N 04:29:12 18° NE 04:33:09 10° ENE visible
06 Sep - 06:10:14 10° NW 06:16:17 52° NNE 06:21:26 10° E visible
06 Sep - 07:57:56 10° W 08:03:38 84° S 08:08:27 10° E daylight
06 Sep - 09:45:56 10° W 09:51:03 89° N 09:55:28 10° ENE daylight
06 Sep - 11:33:49 10° W 11:37:56 33° NNW 11:41:45 10° NE daylight
07 Sep - 04:06:49 10° N 04:11:33 20° NE 04:15:54 10° E visible
07 Sep - 05:52:26 10° NW 05:58:41 56° NNE 06:04:01 10° E visible
07 Sep - 07:40:14 10° W 07:46:06 83° S 07:51:03 10° E daylight
07 Sep - 09:28:18 10° W 09:33:33 87° N 09:38:03 10° ENE daylight
07 Sep - 11:16:17 10° W 11:20:26 32° NNW 11:24:13 10° NNE daylight
08 Sep - 03:48:46 10° NNW 03:53:54 23° NE 03:58:36 10° E visible
08 Sep - 05:34:38 10° WNW 05:41:05 60° NNE 05:46:35 10° E visible
08 Sep - 07:22:32 10° W 07:28:34 82° S 07:33:38 10° E daylight
08 Sep - 09:10:39 10° W 09:16:03 84° NNW 09:20:38 10° ENE daylight
08 Sep - 10:58:43 10° W 11:02:54 30° NNW 11:06:41 10° NNE daylight
09 Sep - 03:30:45 10° NNW 03:36:14 25° NNE 03:41:14 10° E visible
09 Sep - 05:16:51 10° WNW 05:23:28 63° NNE 05:29:08 10° E visible
09 Sep - 07:04:50 10° W 07:11:02 82° S 07:16:13 10° E daylight
09 Sep - 08:52:58 10° W 08:58:31 82° NNW 09:03:13 10° ENE daylight
09 Sep - 10:41:09 10° W 10:45:22 28° NNW 10:49:08 10° NNE daylight
